GFA604 OBBI-OMDB

Flight info

Callsign GFA604
Flight time 0h 53m
Altitude 25000
Route BHR N697 SODAK P559 VUTEB
Aircraft A320/M-SDE3FGHIRWY/LB1

Departure

Time 2026-05-04 14:22
Airport Bahrain International Airport (OBBI)

Arrival

Time 2026-05-04 15:15
Airport Dubai International Airport (OMDB)
Time Latitude Longitude Altitude Speed Heading
2026-05-04 13:43 26.27422 50.62282 17 ft 0 kts 213°
2026-05-04 14:11 26.27426 50.62285 17 ft 2 kts 213°
2026-05-04 14:12 26.27441 50.62295 18 ft 2 kts 213°
2026-05-04 14:12 26.27455 50.62306 18 ft 2 kts 213°
2026-05-04 14:12 26.27484 50.62327 17 ft 3 kts 202°
2026-05-04 14:13 26.27501 50.62331 20 ft 3 kts 167°
2026-05-04 14:13 26.27502 50.62331 20 ft 0 kts 164°
2026-05-04 14:15 26.27487 50.62339 17 ft 3 kts 148°
2026-05-04 14:15 26.27446 50.62395 17 ft 6 kts 124°
2026-05-04 14:16 26.27385 50.62501 17 ft 10 kts 123°
2026-05-04 14:16 26.27344 50.62573 17 ft 12 kts 122°
2026-05-04 14:17 26.27241 50.62752 20 ft 16 kts 122°
2026-05-04 14:17 26.27181 50.62861 19 ft 18 kts 121°
2026-05-04 14:17 26.27028 50.63108 17 ft 22 kts 123°
2026-05-04 14:18 26.26939 50.63260 17 ft 25 kts 122°
2026-05-04 14:18 26.26736 50.63611 17 ft 29 kts 123°
2026-05-04 14:19 26.26507 50.64007 17 ft 32 kts 123°
2026-05-04 14:19 26.26379 50.64225 15 ft 34 kts 123°
2026-05-04 14:19 26.26245 50.64455 15 ft 36 kts 123°
2026-05-04 14:19 26.26124 50.64668 14 ft 32 kts 122°
2026-05-04 14:20 26.26024 50.64845 16 ft 23 kts 112°
2026-05-04 14:20 26.26069 50.64979 17 ft 17 kts 35°
2026-05-04 14:20 26.26140 50.64980 18 ft 10 kts 312°
2026-05-04 14:21 26.26431 50.64494 14 ft 91 kts 302°
2026-05-04 14:21 26.26876 50.63723 18 ft 143 kts 303°
2026-05-04 14:21 26.27488 50.62664 134 ft 174 kts 303°
2026-05-04 14:21 26.27899 50.61911 575 ft 170 kts 303°
2026-05-04 14:22 26.29018 50.60726 1350 ft 169 kts 343°
2026-05-04 14:22 26.30165 50.60373 1826 ft 177 kts 347°
2026-05-04 14:22 26.30985 50.60152 1952 ft 190 kts 348°
2026-05-04 14:22 26.32343 50.59792 2403 ft 208 kts 348°
2026-05-04 14:23 26.35484 50.59128 2926 ft 250 kts
2026-05-04 14:23 26.37150 50.59743 3534 ft 259 kts 33°
2026-05-04 14:23 26.38727 50.61791 4525 ft 268 kts 52°
2026-05-04 14:24 26.39444 50.62952 5008 ft 270 kts 52°
2026-05-04 14:24 26.40527 50.64688 5716 ft 275 kts 51°
2026-05-04 14:24 26.41632 50.66448 6408 ft 280 kts 51°
2026-05-04 14:24 26.42757 50.68240 7078 ft 284 kts 51°
2026-05-04 14:25 26.43887 50.70039 7750 ft 289 kts 50°
2026-05-04 14:25 26.46230 50.73784 9103 ft 299 kts 50°
2026-05-04 14:25 26.47430 50.75708 9772 ft 304 kts 50°
2026-05-04 14:26 26.48660 50.77675 10188 ft 319 kts 51°
2026-05-04 14:26 26.49980 50.79774 10325 ft 342 kts 51°
2026-05-04 14:26 26.51386 50.82013 10447 ft 363 kts 51°
2026-05-04 14:26 26.52857 50.84372 10739 ft 375 kts 52°
2026-05-04 14:27 26.54354 50.86788 11273 ft 380 kts 52°
2026-05-04 14:27 26.55864 50.89227 11833 ft 384 kts 52°
2026-05-04 14:27 26.57538 50.91548 12401 ft 384 kts 42°
2026-05-04 14:27 26.59560 50.93502 12971 ft 385 kts 34°
2026-05-04 14:28 26.61690 50.95339 13538 ft 389 kts 34°
2026-05-04 14:28 26.63841 50.97197 14053 ft 392 kts 34°
2026-05-04 14:28 26.66009 50.99072 14561 ft 396 kts 35°
2026-05-04 14:28 26.68200 51.00969 15070 ft 400 kts 35°
2026-05-04 14:29 26.72536 51.04951 16095 ft 410 kts 45°
2026-05-04 14:29 26.75212 51.10592 17111 ft 424 kts 76°
2026-05-04 14:30 26.75511 51.13883 17646 ft 428 kts 92°
2026-05-04 14:30 26.75033 51.17182 18164 ft 430 kts 108°
2026-05-04 14:30 26.73015 51.23543 19137 ft 437 kts 111°
2026-05-04 14:31 26.71978 51.26751 19633 ft 440 kts 111°
2026-05-04 14:31 26.69888 51.33234 20582 ft 446 kts 111°
2026-05-04 14:32 26.67779 51.39769 21474 ft 452 kts 111°
2026-05-04 14:32 26.66703 51.43096 21914 ft 455 kts 111°
2026-05-04 14:32 26.65625 51.46442 22341 ft 458 kts 111°
2026-05-04 14:32 26.64544 51.49805 22751 ft 461 kts 111°
2026-05-04 14:33 26.63456 51.53187 23147 ft 463 kts 111°
2026-05-04 14:33 26.62377 51.56549 23499 ft 466 kts 111°
2026-05-04 14:33 26.61281 51.59970 23805 ft 469 kts 111°
2026-05-04 14:33 26.60176 51.63405 24115 ft 472 kts 111°
2026-05-04 14:34 26.59061 51.66865 24417 ft 474 kts 111°
2026-05-04 14:34 26.57939 51.70342 24674 ft 477 kts 111°
2026-05-04 14:34 26.56808 51.73841 24742 ft 482 kts 111°
2026-05-04 14:34 26.55658 51.77391 24755 ft 489 kts 111°
2026-05-04 14:35 26.54495 51.80971 24756 ft 492 kts 111°
2026-05-04 14:35 26.53326 51.84569 24755 ft 492 kts 111°
2026-05-04 14:35 26.52163 51.88164 24756 ft 492 kts 111°
2026-05-04 14:35 26.50990 51.91756 24755 ft 492 kts 112°
2026-05-04 14:36 26.49805 51.95345 24752 ft 492 kts 112°
2026-05-04 14:36 26.48611 51.98923 24752 ft 492 kts 112°
2026-05-04 14:36 26.47414 52.02498 24752 ft 492 kts 112°
2026-05-04 14:36 26.46215 52.06080 24752 ft 492 kts 112°
2026-05-04 14:37 26.45015 52.09660 24751 ft 492 kts 112°
2026-05-04 14:37 26.43817 52.13235 24751 ft 492 kts 112°
2026-05-04 14:37 26.42620 52.16810 24750 ft 492 kts 112°
2026-05-04 14:37 26.41423 52.20387 24751 ft 492 kts 112°
2026-05-04 14:38 26.40225 52.23968 24751 ft 492 kts 112°
2026-05-04 14:38 26.39030 52.27545 24753 ft 492 kts 112°
2026-05-04 14:38 26.37833 52.31119 24745 ft 492 kts 112°
2026-05-04 14:38 26.36634 52.34689 24746 ft 492 kts 112°
2026-05-04 14:39 26.35430 52.38261 24747 ft 492 kts 112°
2026-05-04 14:39 26.34178 52.41804 24743 ft 491 kts 114°
2026-05-04 14:39 26.32855 52.45315 24743 ft 491 kts 115°
2026-05-04 14:40 26.30110 52.52279 24740 ft 491 kts 115°
2026-05-04 14:40 26.28735 52.55760 24743 ft 491 kts 115°
2026-05-04 14:40 26.27370 52.59251 24737 ft 491 kts 115°
2026-05-04 14:40 26.26038 52.62693 24735 ft 491 kts 115°
2026-05-04 14:41 26.24694 52.66187 24738 ft 491 kts 115°
2026-05-04 14:41 26.23355 52.69684 24732 ft 491 kts 115°
2026-05-04 14:41 26.20696 52.76680 24732 ft 491 kts 114°
2026-05-04 14:42 26.18031 52.83674 24732 ft 491 kts 115°
2026-05-04 14:42 26.16688 52.87163 24733 ft 490 kts 115°
2026-05-04 14:42 26.15339 52.90657 24734 ft 491 kts 115°
2026-05-04 14:43 26.13993 52.94142 24729 ft 491 kts 115°
2026-05-04 14:43 26.12646 52.97631 24733 ft 491 kts 115°
2026-05-04 14:43 26.11299 53.01115 24734 ft 491 kts 115°
2026-05-04 14:43 26.09953 53.04605 24728 ft 491 kts 115°
2026-05-04 14:44 26.08630 53.08103 24730 ft 491 kts 114°
2026-05-04 14:44 26.07336 53.11616 24734 ft 491 kts 113°
2026-05-04 14:44 26.06060 53.15138 24733 ft 491 kts 113°
2026-05-04 14:44 26.04789 53.18661 24735 ft 491 kts 113°
2026-05-04 14:45 26.03514 53.22180 24736 ft 491 kts 113°
2026-05-04 14:45 26.02230 53.25697 24734 ft 491 kts 114°
2026-05-04 14:45 26.00938 53.29209 24735 ft 491 kts 114°
2026-05-04 14:45 25.99639 53.32719 24736 ft 491 kts 114°
2026-05-04 14:46 25.98338 53.36222 24736 ft 491 kts 114°
2026-05-04 14:46 25.97033 53.39728 24736 ft 490 kts 114°
2026-05-04 14:46 25.95732 53.43232 24739 ft 490 kts 114°
2026-05-04 14:46 25.94433 53.46734 24739 ft 490 kts 114°
2026-05-04 14:47 25.93137 53.50239 24733 ft 490 kts 113°
2026-05-04 14:47 25.91877 53.53758 24736 ft 490 kts 112°
2026-05-04 14:47 25.90656 53.57293 24730 ft 490 kts 112°
2026-05-04 14:47 25.89458 53.60841 24730 ft 490 kts 111°
2026-05-04 14:48 25.88266 53.64389 24729 ft 490 kts 111°
2026-05-04 14:48 25.87065 53.67932 24728 ft 490 kts 112°
2026-05-04 14:48 25.85850 53.71477 24731 ft 490 kts 112°
2026-05-04 14:48 25.84627 53.75011 24730 ft 490 kts 112°
2026-05-04 14:49 25.83397 53.78540 24726 ft 490 kts 112°
2026-05-04 14:49 25.82182 53.82020 24731 ft 490 kts 112°
2026-05-04 14:49 25.80949 53.85552 24731 ft 490 kts 112°
2026-05-04 14:49 25.79720 53.89084 24730 ft 490 kts 112°
2026-05-04 14:50 25.78494 53.92614 24732 ft 490 kts 112°
2026-05-04 14:50 25.77266 53.96145 24730 ft 490 kts 112°
2026-05-04 14:50 25.76036 53.99670 24718 ft 490 kts 112°
2026-05-04 14:50 25.74823 54.03211 24486 ft 491 kts 111°
2026-05-04 14:51 25.73677 54.06782 24263 ft 491 kts 110°
2026-05-04 14:51 25.72587 54.10361 23775 ft 488 kts 109°
2026-05-04 14:51 25.71533 54.13927 22882 ft 486 kts 109°
2026-05-04 14:51 25.70490 54.17469 22090 ft 480 kts 109°
2026-05-04 14:52 25.69448 54.20964 21320 ft 474 kts 109°
2026-05-04 14:52 25.68401 54.24414 20548 ft 470 kts 109°
2026-05-04 14:52 25.67349 54.27823 19792 ft 465 kts 109°
2026-05-04 14:52 25.66299 54.31199 19047 ft 461 kts 109°
2026-05-04 14:53 25.65257 54.34539 18327 ft 457 kts 109°
2026-05-04 14:53 25.64223 54.37852 17584 ft 453 kts 109°
2026-05-04 14:53 25.63204 54.41125 16901 ft 447 kts 109°
2026-05-04 14:53 25.62197 54.44361 16261 ft 441 kts 108°
2026-05-04 14:54 25.61204 54.47559 15620 ft 437 kts 108°
2026-05-04 14:54 25.60213 54.50743 14977 ft 434 kts 108°
2026-05-04 14:54 25.59245 54.53849 14347 ft 431 kts 108°
2026-05-04 14:54 25.58430 54.57012 13923 ft 422 kts 99°
2026-05-04 14:55 25.58128 54.60208 13394 ft 414 kts 88°
2026-05-04 14:55 25.58356 54.63316 13250 ft 394 kts 79°
2026-05-04 14:55 25.58738 54.66261 13118 ft 377 kts 80°
2026-05-04 14:55 25.59089 54.69079 12989 ft 362 kts 80°
2026-05-04 14:56 25.59424 54.71796 12860 ft 349 kts 80°
2026-05-04 14:56 25.59747 54.74411 12736 ft 336 kts 80°
2026-05-04 14:56 25.60061 54.76938 12612 ft 326 kts 79°
2026-05-04 14:56 25.60365 54.79380 12489 ft 315 kts 79°
2026-05-04 14:57 25.60661 54.81749 12367 ft 306 kts 79°
2026-05-04 14:57 25.60948 54.84047 12232 ft 297 kts 80°
2026-05-04 14:57 25.60956 54.86318 12023 ft 295 kts 96°
2026-05-04 14:57 25.60414 54.88506 11888 ft 295 kts 111°
2026-05-04 14:58 25.59594 54.90592 11763 ft 295 kts 111°
2026-05-04 14:58 25.58778 54.92677 11645 ft 295 kts 111°
2026-05-04 14:58 25.57965 54.94763 11520 ft 294 kts 111°
2026-05-04 14:58 25.57158 54.96841 11396 ft 294 kts 111°
2026-05-04 14:59 25.56351 54.98916 11277 ft 293 kts 111°
2026-05-04 14:59 25.55543 55.00987 11155 ft 293 kts 111°
2026-05-04 14:59 25.53763 55.05033 10873 ft 293 kts 118°
2026-05-04 15:00 25.52751 55.06984 10694 ft 292 kts 118°
2026-05-04 15:00 25.51755 55.08903 10532 ft 291 kts 118°
2026-05-04 15:00 25.50747 55.10846 10357 ft 291 kts 118°
2026-05-04 15:01 25.48736 55.14723 10020 ft 290 kts 118°
2026-05-04 15:01 25.47732 55.16654 9852 ft 289 kts 118°
2026-05-04 15:01 25.46728 55.18583 9683 ft 289 kts 118°
2026-05-04 15:01 25.45610 55.20427 9507 ft 290 kts 129°
2026-05-04 15:02 25.44263 55.22083 9332 ft 289 kts 130°
2026-05-04 15:02 25.42918 55.23731 9162 ft 288 kts 130°
2026-05-04 15:02 25.41580 55.25374 8996 ft 287 kts 130°
2026-05-04 15:02 25.40245 55.27010 8718 ft 286 kts 130°
2026-05-04 15:03 25.38918 55.28637 8437 ft 284 kts 130°
2026-05-04 15:03 25.37601 55.30252 8211 ft 280 kts 130°
2026-05-04 15:03 25.36316 55.31826 8093 ft 272 kts 130°
2026-05-04 15:03 25.35194 55.33449 7968 ft 261 kts 119°
2026-05-04 15:04 25.34264 55.35132 7826 ft 252 kts 119°
2026-05-04 15:04 25.33355 55.36772 7574 ft 249 kts 119°
2026-05-04 15:04 25.32456 55.38395 7297 ft 247 kts 119°
2026-05-04 15:04 25.31560 55.40009 7002 ft 246 kts 119°
2026-05-04 15:05 25.30668 55.41612 6714 ft 244 kts 119°
2026-05-04 15:05 25.29778 55.43208 6442 ft 243 kts 119°
2026-05-04 15:05 25.28891 55.44794 6191 ft 242 kts 119°
2026-05-04 15:05 25.28014 55.46364 6036 ft 239 kts 119°
2026-05-04 15:06 25.27141 55.47932 6035 ft 240 kts 119°
2026-05-04 15:06 25.26265 55.49509 5982 ft 242 kts 119°
2026-05-04 15:06 25.25390 55.51086 5725 ft 239 kts 120°
2026-05-04 15:07 25.23656 55.54204 5132 ft 238 kts 119°
2026-05-04 15:07 25.22791 55.55755 4833 ft 236 kts 120°
2026-05-04 15:07 25.21930 55.57301 4526 ft 236 kts 120°
2026-05-04 15:07 25.21076 55.58839 4220 ft 234 kts 120°
2026-05-04 15:08 25.20221 55.60378 3893 ft 235 kts 120°
2026-05-04 15:08 25.19341 55.61859 3570 ft 234 kts 132°
2026-05-04 15:08 25.17998 55.62816 3296 ft 230 kts 167°
2026-05-04 15:08 25.16437 55.62822 2952 ft 225 kts 199°
2026-05-04 15:09 25.15059 55.62062 2618 ft 220 kts 223°
2026-05-04 15:09 25.14101 55.60824 2458 ft 206 kts 245°
2026-05-04 15:09 25.13647 55.59411 2372 ft 188 kts 263°
2026-05-04 15:10 25.13987 55.56800 2131 ft 159 kts 297°
2026-05-04 15:10 25.14344 55.56123 2085 ft 150 kts 301°
2026-05-04 15:10 25.15397 55.54231 2023 ft 142 kts 301°
2026-05-04 15:11 25.15918 55.53295 2024 ft 144 kts 301°
2026-05-04 15:11 25.16440 55.52356 2031 ft 142 kts 302°
2026-05-04 15:11 25.16956 55.51429 2006 ft 141 kts 302°
2026-05-04 15:11 25.17470 55.50504 2006 ft 141 kts 301°
2026-05-04 15:12 25.17990 55.49571 1957 ft 144 kts 301°
2026-05-04 15:12 25.18514 55.48628 1839 ft 143 kts 300°
2026-05-04 15:12 25.19031 55.47698 1709 ft 139 kts 301°
2026-05-04 15:12 25.19536 55.46790 1534 ft 138 kts 301°
2026-05-04 15:13 25.20037 55.45891 1348 ft 137 kts 301°
2026-05-04 15:13 25.20539 55.44992 1168 ft 137 kts 300°
2026-05-04 15:13 25.21035 55.44093 1024 ft 137 kts 300°
2026-05-04 15:13 25.21534 55.43192 852 ft 138 kts 299°
2026-05-04 15:14 25.22033 55.42289 664 ft 137 kts 299°
2026-05-04 15:14 25.22531 55.41398 500 ft 136 kts 299°
2026-05-04 15:14 25.23021 55.40509 326 ft 136 kts 298°
2026-05-04 15:14 25.23519 55.39612 151 ft 137 kts 299°
2026-05-04 15:15 25.23994 55.38752 55 ft 117 kts 302°
2026-05-04 15:15 25.24332 55.38154 53 ft 67 kts 301°
2026-05-04 15:15 25.24429 55.37894 42 ft 21 kts 238°
2026-05-04 15:16 25.24346 55.37827 42 ft 0 kts 221°
2026-05-04 15:16 25.24335 55.37805 42 ft 3 kts 257°
2026-05-04 15:17 25.24342 55.37773 41 ft 6 kts 303°
2026-05-04 15:17 25.24414 55.37641 38 ft 14 kts 302°
2026-05-04 15:17 25.24473 55.37536 37 ft 18 kts 301°
2026-05-04 15:18 25.24542 55.37410 35 ft 21 kts 303°
2026-05-04 15:18 25.24615 55.37276 33 ft 18 kts 300°
2026-05-04 15:18 25.24674 55.37173 33 ft 16 kts 305°
2026-05-04 15:19 25.24795 55.36955 30 ft 17 kts 301°
2026-05-04 15:19 25.24845 55.36844 28 ft 13 kts 288°
2026-05-04 15:19 25.24904 55.36639 27 ft 12 kts 304°
2026-05-04 15:20 25.24950 55.36556 24 ft 14 kts 300°
2026-05-04 15:20 25.25001 55.36462 24 ft 15 kts 301°
2026-05-04 15:20 25.25062 55.36351 21 ft 18 kts 301°
2026-05-04 15:20 25.25098 55.36287 20 ft 9 kts 301°
2026-05-04 15:21 25.25138 55.36216 19 ft 13 kts 302°
2026-05-04 15:21 25.25191 55.36121 19 ft 16 kts 299°
2026-05-04 15:21 25.25334 55.35864 15 ft 23 kts 301°
2026-05-04 15:22 25.25414 55.35719 14 ft 15 kts 301°
2026-05-04 15:22 25.25474 55.35609 12 ft 18 kts 301°
2026-05-04 15:22 25.25596 55.35388 14 ft 16 kts 302°
2026-05-04 15:23 25.25629 55.35328 18 ft 9 kts 301°
2026-05-04 15:23 25.25659 55.35276 19 ft 8 kts 302°
2026-05-04 15:23 25.25693 55.35216 18 ft 10 kts 302°
2026-05-04 15:23 25.25730 55.35152 21 ft 10 kts 302°
2026-05-04 15:24 25.25799 55.35015 21 ft 9 kts 302°
2026-05-04 15:24 25.25880 55.34867 23 ft 13 kts 303°
2026-05-04 15:25 25.25923 55.34797 26 ft 10 kts 295°
2026-05-04 15:25 25.25960 55.34722 25 ft 12 kts 302°
2026-05-04 15:25 25.25999 55.34657 27 ft 10 kts 304°
2026-05-04 15:26 25.26028 55.34586 31 ft 6 kts 243°
2026-05-04 15:26 25.25990 55.34535 28 ft 10 kts 244°
2026-05-04 15:26 25.26046 55.34375 27 ft 14 kts 299°
2026-05-04 15:27 25.26046 55.34305 27 ft 9 kts 221°
2026-05-04 15:27 25.25986 55.34263 27 ft 0 kts 212°